AFR6352 LFBD-LFQQ

Flight info

Callsign AFR6352
Flight time 1h 6m
Altitude 34000
Route CNA DCT ADABI DCT BOKNO UN858 VANAD UN874 ARSAF DCT EGOZE DCT PERON N874 CMB
Aircraft A320/M-SDE3FGHIRWY/LB1

Departure

Time 2026-05-08 20:36
Airport Bordeaux–Mérignac Airport (LFBD)

Arrival

Time 2026-05-08 21:42
Airport Lille Airport (LFQQ)
Time Latitude Longitude Altitude Speed Heading
2026-05-08 20:09 44.83165 -0.70416 163 ft 0 kts 164°
2026-05-08 20:24 44.83176 -0.70421 163 ft 2 kts 164°
2026-05-08 20:24 44.83192 -0.70427 163 ft 2 kts 165°
2026-05-08 20:24 44.83208 -0.70433 163 ft 2 kts 167°
2026-05-08 20:25 44.83224 -0.70438 163 ft 2 kts 180°
2026-05-08 20:25 44.83238 -0.70433 163 ft 1 kts 222°
2026-05-08 20:25 44.83239 -0.70431 163 ft 0 kts 223°
2026-05-08 20:28 44.83224 -0.70451 163 ft 5 kts 223°
2026-05-08 20:28 44.83193 -0.70499 163 ft 10 kts 243°
2026-05-08 20:28 44.83206 -0.70582 163 ft 7 kts 265°
2026-05-08 20:29 44.83162 -0.70660 163 ft 12 kts 226°
2026-05-08 20:29 44.83106 -0.70741 163 ft 11 kts 226°
2026-05-08 20:29 44.83060 -0.70809 163 ft 8 kts 224°
2026-05-08 20:29 44.83051 -0.70820 163 ft 1 kts 224°
2026-05-08 20:30 44.83050 -0.70821 163 ft 0 kts 224°
2026-05-08 20:31 44.82980 -0.70921 163 ft 25 kts 227°
2026-05-08 20:31 44.82916 -0.71011 161 ft 5 kts 226°
2026-05-08 20:31 44.82901 -0.71021 161 ft 0 kts 158°
2026-05-08 20:31 44.82910 -0.70946 163 ft 11 kts 52°
2026-05-08 20:32 44.82976 -0.70927 163 ft 14 kts 13°
2026-05-08 20:32 44.83053 -0.70824 163 ft 16 kts 45°
2026-05-08 20:32 44.83130 -0.70712 163 ft 16 kts 45°
2026-05-08 20:32 44.83207 -0.70602 163 ft 16 kts 45°
2026-05-08 20:33 44.83284 -0.70491 163 ft 16 kts 45°
2026-05-08 20:33 44.83361 -0.70380 163 ft 16 kts 45°
2026-05-08 20:33 44.83438 -0.70269 163 ft 16 kts 46°
2026-05-08 20:33 44.83515 -0.70158 163 ft 16 kts 45°
2026-05-08 20:34 44.83592 -0.70048 163 ft 16 kts 45°
2026-05-08 20:34 44.83672 -0.70013 163 ft 1 kts 338°
2026-05-08 20:34 44.83794 -0.70101 161 ft 20 kts 306°
2026-05-08 20:35 44.83787 -0.70216 161 ft 0 kts 225°
2026-05-08 20:35 44.83787 -0.70217 161 ft 0 kts 226°
2026-05-08 20:35 44.83730 -0.70299 161 ft 43 kts 225°
2026-05-08 20:35 44.83338 -0.70856 166 ft 113 kts 225°
2026-05-08 20:36 44.82649 -0.71832 203 ft 162 kts 225°
2026-05-08 20:36 44.81845 -0.72940 804 ft 162 kts 225°
2026-05-08 20:36 44.81051 -0.74071 1465 ft 163 kts 226°
2026-05-08 20:36 44.80251 -0.75223 2100 ft 169 kts 226°
2026-05-08 20:37 44.79395 -0.76455 2567 ft 183 kts 226°
2026-05-08 20:37 44.78528 -0.77863 2936 ft 198 kts 243°
2026-05-08 20:37 44.78381 -0.79808 3328 ft 211 kts 289°
2026-05-08 20:37 44.79265 -0.81469 3852 ft 221 kts 328°
2026-05-08 20:38 44.80758 -0.82037 4399 ft 232 kts 359°
2026-05-08 20:38 44.82427 -0.82049 4884 ft 249 kts 359°
2026-05-08 20:38 44.84219 -0.82050 5393 ft 265 kts 359°
2026-05-08 20:38 44.86099 -0.82052 6095 ft 272 kts 359°
2026-05-08 20:39 44.87985 -0.82062 6920 ft 276 kts 359°
2026-05-08 20:39 44.89918 -0.82075 7730 ft 279 kts 359°
2026-05-08 20:39 44.91860 -0.81879 8519 ft 282 kts 11°
2026-05-08 20:39 44.93727 -0.80994 9292 ft 286 kts 26°
2026-05-08 20:40 44.95386 -0.79439 10036 ft 289 kts 41°
2026-05-08 20:40 44.96910 -0.77500 10568 ft 302 kts 41°
2026-05-08 20:40 44.98517 -0.75470 10947 ft 319 kts 41°
2026-05-08 20:40 45.00222 -0.73327 11338 ft 334 kts 41°
2026-05-08 20:41 45.01974 -0.71130 11956 ft 339 kts 41°
2026-05-08 20:41 45.03147 -0.69656 12418 ft 342 kts 41°
2026-05-08 20:41 45.05464 -0.66743 13296 ft 346 kts 41°
2026-05-08 20:41 45.07270 -0.64469 13955 ft 349 kts 41°
2026-05-08 20:42 45.09089 -0.62170 14589 ft 352 kts 41°
2026-05-08 20:42 45.10925 -0.59848 15207 ft 356 kts 41°
2026-05-08 20:42 45.12779 -0.57501 15807 ft 359 kts 41°
2026-05-08 20:42 45.14799 -0.55403 16399 ft 362 kts 30°
2026-05-08 20:43 45.17094 -0.53899 16975 ft 364 kts 18°
2026-05-08 20:43 45.19524 -0.52792 17528 ft 368 kts 17°
2026-05-08 20:43 45.21966 -0.51679 18070 ft 371 kts 18°
2026-05-08 20:43 45.24432 -0.50545 18607 ft 374 kts 18°
2026-05-08 20:44 45.26916 -0.49396 19139 ft 377 kts 18°
2026-05-08 20:44 45.29420 -0.48234 19658 ft 380 kts 18°
2026-05-08 20:44 45.31941 -0.47062 20178 ft 383 kts 18°
2026-05-08 20:44 45.34446 -0.45896 20676 ft 386 kts 18°
2026-05-08 20:45 45.37007 -0.44702 21163 ft 389 kts 18°
2026-05-08 20:45 45.38747 -0.43890 21493 ft 391 kts 18°
2026-05-08 20:45 45.42188 -0.42288 22136 ft 394 kts 18°
2026-05-08 20:45 45.44812 -0.41072 22603 ft 397 kts 18°
2026-05-08 20:46 45.47453 -0.39847 23059 ft 400 kts 18°
2026-05-08 20:46 45.50107 -0.38612 23500 ft 402 kts 18°
2026-05-08 20:46 45.52779 -0.37360 23926 ft 405 kts 18°
2026-05-08 20:46 45.55467 -0.36094 24335 ft 408 kts 18°
2026-05-08 20:47 45.58172 -0.34818 24735 ft 410 kts 18°
2026-05-08 20:47 45.60852 -0.33555 25111 ft 412 kts 18°
2026-05-08 20:47 45.63589 -0.32270 25481 ft 415 kts 18°
2026-05-08 20:47 45.66269 -0.30727 25845 ft 417 kts 27°
2026-05-08 20:48 45.68771 -0.28605 26194 ft 419 kts 32°
2026-05-08 20:48 45.71236 -0.26340 26519 ft 422 kts 32°
2026-05-08 20:48 45.73709 -0.24066 26847 ft 424 kts 32°
2026-05-08 20:48 45.76200 -0.21775 27167 ft 426 kts 32°
2026-05-08 20:49 45.78697 -0.19477 27473 ft 428 kts 32°
2026-05-08 20:49 45.81209 -0.17159 27780 ft 430 kts 32°
2026-05-08 20:49 45.83736 -0.14823 28079 ft 433 kts 32°
2026-05-08 20:49 45.86268 -0.12481 28368 ft 435 kts 32°
2026-05-08 20:50 45.88822 -0.10115 28655 ft 436 kts 32°
2026-05-08 20:50 45.91380 -0.07746 28934 ft 438 kts 32°
2026-05-08 20:50 45.93951 -0.05364 29197 ft 440 kts 32°
2026-05-08 20:50 45.96496 -0.03005 29460 ft 442 kts 32°
2026-05-08 20:51 45.99120 -0.00570 29716 ft 444 kts 32°
2026-05-08 20:51 46.01719 0.01850 29965 ft 445 kts 33°
2026-05-08 20:51 46.04289 0.04246 30199 ft 447 kts 33°
2026-05-08 20:51 46.06911 0.06692 30425 ft 449 kts 33°
2026-05-08 20:52 46.09538 0.09145 30645 ft 450 kts 33°
2026-05-08 20:52 46.12169 0.11602 30859 ft 452 kts 33°
2026-05-08 20:52 46.14807 0.14065 31078 ft 453 kts 33°
2026-05-08 20:52 46.17466 0.16550 31269 ft 454 kts 33°
2026-05-08 20:53 46.20116 0.19032 31539 ft 454 kts 33°
2026-05-08 20:53 46.22759 0.21511 31829 ft 453 kts 33°
2026-05-08 20:53 46.25402 0.23995 32121 ft 452 kts 33°
2026-05-08 20:53 46.28033 0.26474 32378 ft 451 kts 33°
2026-05-08 20:54 46.30660 0.28956 32642 ft 451 kts 33°
2026-05-08 20:54 46.33285 0.31434 32901 ft 450 kts 33°
2026-05-08 20:54 46.35918 0.33915 33162 ft 450 kts 33°
2026-05-08 20:54 46.38506 0.36352 33405 ft 449 kts 33°
2026-05-08 20:55 46.41126 0.38824 33654 ft 449 kts 33°
2026-05-08 20:55 46.43743 0.41304 33898 ft 449 kts 33°
2026-05-08 20:55 46.46346 0.43778 33992 ft 444 kts 33°
2026-05-08 20:56 46.51434 0.48620 34009 ft 435 kts 33°
2026-05-08 20:56 46.55749 0.52363 34013 ft 435 kts 24°
2026-05-08 20:57 46.61537 0.54850 34008 ft 435 kts 12°
2026-05-08 20:57 46.67442 0.56772 34009 ft 434 kts 12°
2026-05-08 20:58 46.73337 0.58729 34004 ft 435 kts 12°
2026-05-08 20:58 46.79230 0.60697 34006 ft 434 kts 12°
2026-05-08 20:59 46.85127 0.62659 34006 ft 435 kts 12°
2026-05-08 20:59 46.91026 0.64612 34007 ft 435 kts 12°
2026-05-08 21:00 46.96930 0.66568 34011 ft 435 kts 12°
2026-05-08 21:00 47.02790 0.68517 34014 ft 434 kts 12°
2026-05-08 21:01 47.08777 0.69598 34004 ft 434 kts
2026-05-08 21:01 47.14807 0.70213 34000 ft 434 kts
2026-05-08 21:02 47.20839 0.70832 33999 ft 434 kts
2026-05-08 21:02 47.26864 0.71471 33999 ft 434 kts
2026-05-08 21:03 47.32892 0.72112 33999 ft 434 kts
2026-05-08 21:03 47.38921 0.72738 34002 ft 434 kts
2026-05-08 21:04 47.44899 0.73361 34001 ft 434 kts
2026-05-08 21:04 47.50876 0.74529 33997 ft 434 kts 15°
2026-05-08 21:05 47.56608 0.77313 33998 ft 435 kts 18°
2026-05-08 21:05 47.62364 0.80151 33997 ft 435 kts 18°
2026-05-08 21:06 47.68103 0.82985 34004 ft 435 kts 18°
2026-05-08 21:06 47.73843 0.85823 34004 ft 435 kts 18°
2026-05-08 21:07 47.79589 0.88667 34013 ft 435 kts 18°
2026-05-08 21:07 47.85325 0.91519 34012 ft 434 kts 18°
2026-05-08 21:08 47.91051 0.94401 34006 ft 435 kts 18°
2026-05-08 21:08 47.96776 0.97308 34001 ft 435 kts 18°
2026-05-08 21:09 48.02507 1.00229 34001 ft 435 kts 18°
2026-05-08 21:09 48.08205 1.03119 34004 ft 435 kts 18°
2026-05-08 21:10 48.13940 1.06037 34002 ft 434 kts 18°
2026-05-08 21:10 48.19665 1.08962 33999 ft 434 kts 19°
2026-05-08 21:11 48.25378 1.11888 33998 ft 435 kts 18°
2026-05-08 21:11 48.31117 1.14814 33999 ft 435 kts 18°
2026-05-08 21:12 48.36818 1.17724 34000 ft 435 kts 18°
2026-05-08 21:12 48.42543 1.20642 34002 ft 435 kts 18°
2026-05-08 21:13 48.48281 1.23573 34004 ft 435 kts 19°
2026-05-08 21:13 48.54012 1.26535 34002 ft 435 kts 19°
2026-05-08 21:14 48.59719 1.29457 34002 ft 435 kts 18°
2026-05-08 21:14 48.65469 1.32343 34007 ft 434 kts 18°
2026-05-08 21:15 48.71204 1.35211 34014 ft 434 kts 18°
2026-05-08 21:15 48.76940 1.38106 34019 ft 434 kts 18°
2026-05-08 21:16 48.82683 1.41021 34025 ft 435 kts 18°
2026-05-08 21:16 48.88414 1.43943 34022 ft 434 kts 18°
2026-05-08 21:17 48.94124 1.46929 34022 ft 434 kts 23°
2026-05-08 21:17 48.99223 1.51790 34008 ft 435 kts 42°
2026-05-08 21:18 49.03333 1.58545 34011 ft 435 kts 48°
2026-05-08 21:18 49.07354 1.65424 34010 ft 434 kts 48°
2026-05-08 21:19 49.11353 1.72276 34014 ft 435 kts 48°
2026-05-08 21:19 49.15361 1.79169 33785 ft 427 kts 48°
2026-05-08 21:19 49.17321 1.82548 33537 ft 423 kts 48°
2026-05-08 21:20 49.19263 1.85910 33283 ft 420 kts 48°
2026-05-08 21:20 49.21183 1.89242 32842 ft 416 kts 48°
2026-05-08 21:20 49.23092 1.92556 32326 ft 413 kts 48°
2026-05-08 21:20 49.24981 1.95832 31836 ft 409 kts 48°
2026-05-08 21:21 49.26859 1.99088 31349 ft 406 kts 48°
2026-05-08 21:21 49.28722 2.02320 30864 ft 403 kts 48°
2026-05-08 21:21 49.30572 2.05539 30400 ft 400 kts 49°
2026-05-08 21:21 49.32399 2.08729 29935 ft 396 kts 49°
2026-05-08 21:22 49.34204 2.11884 29487 ft 393 kts 49°
2026-05-08 21:22 49.36001 2.15027 29035 ft 389 kts 49°
2026-05-08 21:22 49.37753 2.18097 28618 ft 386 kts 49°
2026-05-08 21:22 49.39514 2.21186 28194 ft 382 kts 49°
2026-05-08 21:23 49.41259 2.24243 27768 ft 379 kts 49°
2026-05-08 21:23 49.42988 2.27272 27350 ft 375 kts 49°
2026-05-08 21:23 49.44699 2.30275 26928 ft 371 kts 49°
2026-05-08 21:23 49.46387 2.33245 26506 ft 368 kts 49°
2026-05-08 21:24 49.48056 2.36189 26087 ft 364 kts 49°
2026-05-08 21:24 49.49713 2.39123 25654 ft 361 kts 49°
2026-05-08 21:24 49.51351 2.42021 25230 ft 357 kts 49°
2026-05-08 21:24 49.52975 2.44893 24787 ft 354 kts 49°
2026-05-08 21:25 49.54610 2.47710 24351 ft 351 kts 44°
2026-05-08 21:25 49.56472 2.50106 23908 ft 348 kts 33°
2026-05-08 21:25 49.58509 2.52079 23474 ft 345 kts 31°
2026-05-08 21:25 49.60539 2.54029 23047 ft 343 kts 32°
2026-05-08 21:26 49.62553 2.55978 22616 ft 340 kts 32°
2026-05-08 21:26 49.64553 2.57918 22186 ft 338 kts 32°
2026-05-08 21:26 49.66539 2.59847 21776 ft 336 kts 32°
2026-05-08 21:26 49.68490 2.61741 21368 ft 334 kts 32°
2026-05-08 21:27 49.70449 2.63650 20963 ft 332 kts 32°
2026-05-08 21:27 49.72396 2.65548 20570 ft 330 kts 32°
2026-05-08 21:27 49.74331 2.67433 20156 ft 328 kts 32°
2026-05-08 21:27 49.76260 2.69311 19752 ft 326 kts 32°
2026-05-08 21:28 49.78178 2.71178 19363 ft 324 kts 32°
2026-05-08 21:28 49.80081 2.73032 18972 ft 322 kts 32°
2026-05-08 21:28 49.81974 2.74886 18585 ft 320 kts 32°
2026-05-08 21:28 49.83855 2.76731 18202 ft 319 kts 32°
2026-05-08 21:29 49.85720 2.78563 17822 ft 317 kts 32°
2026-05-08 21:29 49.87577 2.80391 17444 ft 315 kts 32°
2026-05-08 21:29 49.89425 2.82209 17068 ft 314 kts 32°
2026-05-08 21:29 49.91261 2.84017 16700 ft 312 kts 32°
2026-05-08 21:30 49.93098 2.85817 16332 ft 311 kts 32°
2026-05-08 21:30 49.94923 2.87599 15971 ft 309 kts 32°
2026-05-08 21:30 49.96716 2.89348 15620 ft 308 kts 32°
2026-05-08 21:30 49.98532 2.91122 15257 ft 307 kts 32°
2026-05-08 21:31 50.00332 2.92881 14899 ft 305 kts 32°
2026-05-08 21:31 50.02122 2.94637 14543 ft 304 kts 32°
2026-05-08 21:31 50.03908 2.96395 14187 ft 303 kts 32°
2026-05-08 21:31 50.05686 2.98151 13817 ft 302 kts 32°
2026-05-08 21:32 50.07451 2.99894 13473 ft 300 kts 32°
2026-05-08 21:32 50.09212 3.01637 13115 ft 299 kts 32°
2026-05-08 21:32 50.10964 3.03372 12748 ft 298 kts 32°
2026-05-08 21:32 50.12708 3.05102 12388 ft 296 kts 32°
2026-05-08 21:33 50.14444 3.06826 12020 ft 295 kts 32°
2026-05-08 21:33 50.16165 3.08535 11658 ft 294 kts 32°
2026-05-08 21:33 50.17872 3.10230 11295 ft 292 kts 32°
2026-05-08 21:33 50.19581 3.11931 10912 ft 291 kts 32°
2026-05-08 21:34 50.21279 3.13623 10550 ft 289 kts 32°
2026-05-08 21:34 50.22962 3.15353 10177 ft 288 kts 37°
2026-05-08 21:34 50.24500 3.17328 9808 ft 286 kts 39°
2026-05-08 21:34 50.26037 3.19311 9421 ft 284 kts 39°
2026-05-08 21:35 50.27559 3.21271 9031 ft 283 kts 39°
2026-05-08 21:35 50.29076 3.23222 8638 ft 282 kts 39°
2026-05-08 21:35 50.30585 3.25161 8240 ft 280 kts 39°
2026-05-08 21:35 50.32086 3.27093 7824 ft 279 kts 39°
2026-05-08 21:36 50.33580 3.29019 7419 ft 277 kts 39°
2026-05-08 21:36 50.35063 3.30935 7012 ft 276 kts 39°
2026-05-08 21:36 50.36540 3.32844 6593 ft 274 kts 39°
2026-05-08 21:36 50.38062 3.34629 6176 ft 272 kts 28°
2026-05-08 21:37 50.39790 3.35687 5752 ft 270 kts 11°
2026-05-08 21:37 50.41655 3.35901 5311 ft 268 kts 354°
2026-05-08 21:37 50.43498 3.35477 4870 ft 267 kts 351°
2026-05-08 21:37 50.45330 3.35026 4421 ft 266 kts 351°
2026-05-08 21:38 50.47177 3.34573 3885 ft 269 kts 351°
2026-05-08 21:38 50.49021 3.34123 3465 ft 267 kts 351°
2026-05-08 21:38 50.50852 3.33678 3114 ft 261 kts 351°
2026-05-08 21:38 50.52577 3.33256 3014 ft 246 kts 351°
2026-05-08 21:39 50.54228 3.32853 2910 ft 232 kts 351°
2026-05-08 21:39 50.55750 3.32269 2812 ft 220 kts 335°
2026-05-08 21:39 50.57055 3.30989 2709 ft 222 kts 317°
2026-05-08 21:39 50.58025 3.29112 2575 ft 222 kts 299°
2026-05-08 21:40 50.58565 3.26819 2091 ft 224 kts 278°
2026-05-08 21:40 50.58565 3.24445 1771 ft 208 kts 259°
2026-05-08 21:40 50.58269 3.22353 1510 ft 194 kts 257°
2026-05-08 21:41 50.57723 3.18447 1032 ft 165 kts 257°
2026-05-08 21:41 50.57486 3.16766 815 ft 154 kts 257°
2026-05-08 21:41 50.57332 3.15674 677 ft 154 kts 257°
2026-05-08 21:41 50.57099 3.14023 475 ft 154 kts 257°
2026-05-08 21:42 50.56794 3.11867 199 ft 152 kts 258°
2026-05-08 21:42 50.56573 3.10280 155 ft 134 kts 256°
2026-05-08 21:42 50.56430 3.09284 159 ft 50 kts 257°
2026-05-08 21:42 50.56426 3.09107 162 ft 15 kts 319°
2026-05-08 21:43 50.56511 3.09056 159 ft 12 kts 347°
2026-05-08 21:43 50.56588 3.09076 158 ft 11 kts 43°
2026-05-08 21:43 50.56610 3.09168 159 ft 9 kts 77°
2026-05-08 21:43 50.56625 3.09270 161 ft 11 kts 77°
2026-05-08 21:44 50.56642 3.09398 161 ft 13 kts 78°
2026-05-08 21:44 50.56663 3.09555 162 ft 16 kts 77°
2026-05-08 21:44 50.56692 3.09750 161 ft 20 kts 77°
2026-05-08 21:44 50.56723 3.09978 160 ft 23 kts 79°
2026-05-08 21:45 50.56762 3.10237 153 ft 27 kts 80°
2026-05-08 21:45 50.56804 3.10527 149 ft 26 kts 78°
2026-05-08 21:45 50.56868 3.10731 149 ft 17 kts
2026-05-08 21:45 50.56982 3.10699 150 ft 17 kts 339°
2026-05-08 21:46 50.57038 3.10631 153 ft 6 kts 338°
2026-05-08 21:46 50.57064 3.10623 154 ft 2 kts 348°
2026-05-08 21:46 50.57068 3.10622 154 ft 2 kts 348°
2026-05-08 21:46 50.57101 3.10611 156 ft 3 kts 348°
2026-05-08 21:47 50.57106 3.10609 156 ft 0 kts 348°